Regional Weather Roundup
Issued by NWS

Home | Current Version | Previous Version | Text Only | Print | Product List | Glossary On
Versions: 1 2 3 4 5 6 7 8 9 10 11 12 13 14 15 16 17 18 19 20 21 22 23 24 25 26 27 28 29 30 31 32 33 34 35 36 37 38 39 40 41 42 43 44 45 46 47 48 49 50
463
ASUS44 KOUN 282000
RWROK

WEATHER ROUNDUP FOR OKLAHOMA
NATIONAL WEATHER SERVICE NORMAN OK
300 PM CDT FRI JUL 28 2017

NOTE: "FAIR" INDICATES FEW OR NO CLOUDS BELOW 12,000 FEET WITH NO
      SIGNIFICANT WEATHER AND/OR OBSTRUCTIONS TO VISIBILITY.

OKZ001>007-009>012-014-015-017-282100-
NORTHWEST OKLAHOMA AND THE PANHANDLE

CITY           SKY/WX    TMP DP  RH WIND       PRES   REMARKS
GAGE           CLOUDY    90  71  53 SE8       30.00F HX  96
GUYMON         CLOUDY    87  69  54 SE9       30.05S HX  91
ENID/WOODRING  PTSUNNY   95  68  41 NE6G13    29.92F HX  99
$$

OKZ016-021>023-033>039-044-045-282100-
SOUTHWEST OKLAHOMA

CITY           SKY/WX    TMP DP  RH WIND       PRES   REMARKS
LAWTON/REGL    PTSUNNY   99  74  44 NE5       29.91F HX 110
FREDERICK      MOSUNNY  100  71  39 VRB6      29.88F HX 108
CLINTON        SUNNY     95  67  39 N6        29.97F HX  99
HOBART         SUNNY     97  69  40 N8        29.94F HX 103
ALTUS AFB      MOSUNNY   98  67  36 NE8       29.92F HX 102
$$

OKZ018>020-024>031-282100-
CENTRAL OKLAHOMA

CITY           SKY/WX    TMP DP  RH WIND       PRES   REMARKS
OKLAHOMA CITY  PTSUNNY   91  70  49 VRB5      29.93F HX  96
OKC/WILEY POST PTSUNNY   90  73  57 N6        29.93F HX  98
STILLWATER     CLOUDY    93  72  50 NE8       29.92F HX 101
GUTHRIE        CLOUDY    93  72  50 VRB3      29.92F HX 101
$$

OKZ008-013-054>072-282100-
NORTHEAST OKLAHOMA

CITY           SKY/WX    TMP DP  RH WIND       PRES   REMARKS
TULSA          PTSUNNY   90  74  59 N7        29.88F HX  99
TULSA/JONES    CLOUDY    91  74  57 N6        29.89F HX 100
PONCA CITY     MOSUNNY   92  67  43 N7        29.92F HX  95
BARTLESVILLE   CLOUDY    90  72  55 NE7       29.92F HX  97
MUSKOGEE       CLOUDY    89  76  65 W3        29.89F HX 100
$$

OKZ032-040>043-046>053-073>077-282100-
SOUTH CENTRAL/SOUTHEAST OKLAHOMA

CITY           SKY/WX    TMP DP  RH WIND       PRES   REMARKS
ARDMORE/DWNTWN MOSUNNY   97  61  30 NE6       29.87F HX  97
MCALESTER      CLOUDY    95  76  53 NE7       29.89F HX 108
$$





USA.gov is the U.S. government's official web portal to all federal, state and local government web resources and services.